星链-2728 (STARLINK-2728 )

导读 | 豆包AI

STARLINK-2728是美国太空探索技术公司(SpaceX)星链(Starlink)卫星互联网星座中的成员,于2021年5月9日发射升空。作为星链项目的低轨卫星,它运行在近地轨道,是SpaceX打造全球高速互联网覆盖星座的重要组成部分,助力为全球偏远、网络基础设施匮乏区域提供宽带互联网接入服务,推进星链星座组网进程,支撑星链全球覆盖的服务目标。

基本信息
目录编号:
48478
目录名称:
STARLINK-2728
国际标识:
2021-040BC
轨道中心:
EARTH
卫星名称:
星链-2728
卫星全名:
星链-2728 (STARLINK-2728 )
卫星状态:
在轨 (已飞行1770 天)
发射日期:
2021-05-09 UTC
国别 :
美国 (US)
星等 :
--
轨道信息
数据来源 国际轨道数据
星历时间: 2026-03-14T08:00:02+0800
18小时前
查看轨道信息
半长轴: 6855.857km
偏心率: 0.0001296
轨道倾角: 53.156°
近地点辐角 90.609°
升交点赤经 170.882°
平近点角 30.938°
近地点: 476.831km
远地点: 478.609km
周期: 94.157分钟
每日圈数: 15.293615
详细信息
固有亮度:
5
最大亮度:
2.5
卫星平台:
Starlink V1.0
覆盖范围:
全球
运营商:
太空探索技术公司
运营商所在国:
美国
制造商(研发单位):
太空探索技术公司
制造商所在国:
美国
使用方式:
暂无
卫星简介
星链(Starlink)计划是由太空探索技术公司(SpaceX)提出的一个巨型低轨卫星互联网星座项目,计划在2019年至2024年间在太空搭建由约1.2万颗卫星组成的“星链”网络,其中1584颗将部署在地球上空550千米处的近地轨道,并从2020年开始工作。该卫星仍在工作。
2D轨道图
3D轨道图
轨道高度分析图
轨道倾角分析图
轨道综合分析图
查看轨道综合分析图